User: anonymous   Login
Location: Unspecified
(0.0000°N, 0.0000°E)
Time: 00:21:22
(UTC+00:00)
Language:

NOSS 3-3 (C) - Orbit

View from above orbital plane
View from above orbital plane
View from above satellite
View from above satellite

Ground track
Ground track

The orbit data is extracted from the following two-line orbital elements,

1 28541U 05004C   17085.84475750 0.00000000  00000-0  00000-0 0    03
2 28541  63.4240  38.4564 0258000 358.3773   1.6227 13.40728355    08
Epoch (UTC): 26 March 2017 20:16:27
Eccentricity: 0.0258000
inclination: 63.4240°
perigee height: 913 km
apogee height: 1299 km
right ascension of ascending node: 38.4564°
argument of perigee: 358.3773°
revolutions per day: 13.40728355
mean anomaly at epoch: 1.6227°
orbit number at epoch: 0

The dashed part of the orbit path shows where the satellite is in the earth's shadow,  

DLR